Find Starlink 32845

NORAD ID: 62815 Int'l Des: 2025-018 Owner: SPXS Country: US Constellation: starlink operational
LEOCIRCULAR

リアルタイム位置

3D地球を読み込み中...

Starlink 32845について

説明を読み込み中...

次回通過

Passes for default location (London). Set your location on the main map for personalized predictions.

高度履歴

Loading altitude history...

軌道要素

1 62815U 25018K 26125.20081675 .00049217 00000-0 16614-2 0 9996
2 62815 53.1589 46.8834 0001118 88.2844 271.8284 15.30228659 71824
Epoch: May 5, 2026 • Age: 7 hours

現在のステータス

高度 480.8 km
速度 7.63 km/s
衛星直下点 52.83°N, 110.27°E
打ち上げ日 Jan 24, 2025
運用期間 1.2 years
タイプ internet

技術仕様

分類 Payload
質量 730.00 kg
乾燥質量 700.00 kg
総質量 730.00 kg
長さ 0.30 m
直径 4.10 m
スパン 29.00 m
形状 Box + pan
製造者 SPXS
バスタイプ Starlink V2M
フェーズステータス In Orbit
所有者/国 SPXS/US

Most Searched